World > North America > United States > Ohio > Dent

Hourly Dent, OH Regional Weather

Feedback E-mail the Weather

Quick WX

Dent, OH Weather Maps

°F °C°F °C
Dent Weather Map
UTC Time: 8/8/2022, 20:16
Your Time:

Dent, OH Regional Weather

Expires:202208082100;;693815
ASUS41 KCLE 082010
RWRCLE
OHIO REGIONAL WEATHER ROUNDUP
NATIONAL WEATHER SERVICE CLEVELAND, OH
400 PM EDT MON AUG 08 2022

NOTE: "FAIR" INDICATES FEW OR NO CLOUDS BELOW 12,000 FEET WITH NO
SIGNIFICANT WEATHER AND/OR OBSTRUCTIONS TO VISIBILITY.


OHZ042-051>053-060>062-070>072-077>081-082100-
  SOUTHWEST OHIO
  
CITY           SKY/WX    TMP DP  RH WIND       PRES   REMARKS
CINC-COVINGTON MOSUNNY   87  75  67 SW12      30.02F HX  96           
CINC-LUNKEN    MOSUNNY   91  73  55 SW17      30.00F HX  99           
HAMILTON       MOSUNNY   90  75  61 VRB6      30.01F HX 100           
DAYTON         PTSUNNY   88  73  61 SW15      29.99F HX  95           
WRIGHT-PAT AFB PTSUNNY   90  73  57 S17       29.95F HX  99           
DAYTON GENERAL SUNNY     88  74  63 SW14G21   30.00F HX  96           
WILMINGTON     MOSUNNY   84  68  58 SW13      30.03S                  
$$


SKY/WX - Weather  TMP - Temperature  DP - Dew Point  RH - Humidity
WIND - Wind Direction/Speed PRES - Barometric Pressure VSB - Visibility
WCI - Wind Chill Index E13G22 Wind - East Wind 13 mph/Gusts of 22 mph

Trending Headlines

Dent Radar Loop



Dent Quick Facts


National Two Day Weather Forecast


E-mail the Dent Weather Forecast

Voice your opinion or tell us about page issues...